Home   Weather   Waco   Past weeks

Flag for USA Past Weather in Waco, Texas, USA — Yesterday and Last 2 Weeks

Now
74 °F

Mostly cloudy.


Feels Like: 74 °F
Forecast: 64 / 73 °F
Wind: 16 mph from Southeast

Location: Waco Regional Airport

Current Time: Feb 19, 2017 at 12:53:01 pm

Latest Report: Feb 19, 2017 at 11:51 am


Visibility: 6 mi

Pressure: 29.85 "Hg

Humidity: 79%

Dew Point: 67 °F

Location of WacoLocation

Past Weather in Waco — Graph

°F

Waco Temperature Yesterday

Maximum temperature yesterday: 81 °F (at 3:51 pm)
Minimum temperature yesterday: 58 °F (at 4:27 am)
Average temperature yesterday: 66 °F

High & Low Weather Summary for the Past Weeks

 TemperatureHumidityPressure
High84 °F (Feb 11, 2:51 pm)100% (Feb 5, 4:26 am)30.41 "Hg (Feb 5, 4:26 am)
Low31 °F (Feb 16, 6:51 am)19% (Feb 7, 2:51 pm)29.67 "Hg (Feb 8, 4:51 am)
Average60 °F72%29.98 "Hg
* Reported Feb 4 10:51 am — Feb 19 10:51 am, Waco, Weather by CustomWeather, © 2017

Note: Actual official high and low records may vary slightly from our data, if they occured in-between our weather recording intervals... More about our weather records

Advertising

Waco Weather History for the Previous 24 Hours

Scroll right to see more
 ConditionsComfort  
Time TempWeatherWind HumidityBarometerVisibility
10:51 am
Sun, Feb 19
72 °FMostly cloudy.15 mph84%29.88 "Hg5 mi
10:34 am73 °FOvercast.14 mph81%29.90 "Hg5 mi
10:16 am71 °FFog.13 mph87%29.90 "Hg4 mi
9:51 am71 °FFog.17 mph87%29.88 "Hg3 mi
8:51 am69 °FFog.16 mph90%29.88 "Hg3 mi
7:51 am67 °FFog.14 mph97%29.86 "Hg3 mi
6:51 am67 °FFog.10 mph93%29.86 "Hg5 mi
6:24 am66 °FFog.9 mph96%29.87 "Hg6 mi
6:14 am66 °FFog.10 mph96%29.87 "Hg6 mi
5:51 am66 °FMostly cloudy.9 mph93%29.85 "Hg7 mi
4:51 am65 °FOvercast.9 mph94%29.84 "Hg8 mi
3:51 am65 °FOvercast.8 mph94%29.82 "Hg8 mi
2:51 am64 °FPassing clouds.8 mph94%29.82 "Hg9 mi
2:43 am64 °FPassing clouds.8 mph94%29.84 "Hg9 mi
1:59 am65 °FPassing clouds.10 mph91%29.85 "Hg10 mi
12:51 am66 °FPassing clouds.16 mph84%29.83 "Hg10 mi
11:51 pm
Sat, Feb 18
64 °FClear.10 mph81%29.80 "Hg10 mi
10:51 pm67 °FClear.9 mph71%29.78 "Hg10 mi
9:51 pm67 °FClear.8 mph66%29.78 "Hg10 mi
8:51 pm66 °FClear.8 mph59%29.75 "Hg10 mi
7:51 pm68 °FClear.7 mph49%29.73 "Hg10 mi
7:15 pm68 °FClear.7 mph47%29.74 "Hg10 mi
6:51 pm69 °FClear.6 mph45%29.72 "Hg10 mi
5:51 pm74 °FSunny.6 mph43%29.71 "Hg10 mi
4:51 pm81 °FSunny.8 mph32%29.71 "Hg10 mi
3:51 pm81 °FSunny.9 mph33%29.70 "Hg10 mi
2:51 pm80 °FSunny.8 mph36%29.71 "Hg10 mi
1:51 pm79 °FSunny.13 mph39%29.72 "Hg10 mi
12:51 pm78 °FSunny.16 mph37%29.75 "Hg10 mi
Weather by CustomWeather, © 2017

See weather overviewHow to use our weather pages